Back to catalog

CZ-6A DEB

AliveSSO
NORAD 54604·DEBRIS·🇨🇳 China

Launched Nov 11, 2022 from Taiyuan Satellite Launch Center

Loading…

Next Passes (next 24 hours)

TLE

FreshSource: Space-Track

Epoch: Sep 14, 2026, 10:41 UTC

1 54604U 22151NE  26257.44540767  .00000236  00000-0  15585-3 0  9997
2 54604  98.8587 257.9607 0050062  99.6937 260.9893 14.10183032196846

Track CZ-6A DEB in real time with AllMySat

Download on the App Store